TimeCDT,TemperatureF,Dew PointF,Humidity,Sea Level PressureIn,VisibilityMPH,Wind Direction,Wind SpeedMPH,Gust SpeedMPH,PrecipitationIn,Events,Conditions,WindDirDegrees,DateUTC
12:53 AM,34.0,26.1,73,30.00,10.0,North,12.7,-,N/A,,Overcast,360,2013-03-15 05:53:00
1:27 AM,33.8,26.6,75,29.94,10.0,North,11.5,-,N/A,,Overcast,350,2013-03-15 06:27:00
1:53 AM,32.0,25.0,75,30.00,10.0,North,10.4,-,N/A,,Overcast,360,2013-03-15 06:53:00
2:29 AM,30.2,23.0,75,29.95,10.0,North,10.4,-,N/A,,Overcast,350,2013-03-15 07:29:00
2:53 AM,30.0,23.0,75,30.01,10.0,North,10.4,-,N/A,,Overcast,360,2013-03-15 07:53:00
3:36 AM,28.4,21.2,74,29.96,10.0,North,11.5,-,N/A,,Overcast,360,2013-03-15 08:36:00
3:53 AM,28.0,19.0,69,30.01,10.0,North,10.4,-,N/A,,Overcast,10,2013-03-15 08:53:00
4:53 AM,27.0,18.0,69,30.01,10.0,North,6.9,-,N/A,,Overcast,360,2013-03-15 09:53:00
5:53 AM,26.1,16.0,66,30.04,10.0,North,11.5,-,N/A,,Overcast,10,2013-03-15 10:53:00
6:53 AM,23.0,14.0,68,30.06,10.0,North,11.5,-,N/A,,Mostly Cloudy,10,2013-03-15 11:53:00
7:06 AM,21.2,12.2,68,30.00,10.0,North,11.5,-,N/A,,Mostly Cloudy,10,2013-03-15 12:06:00
7:53 AM,21.0,10.0,63,30.07,10.0,NNE,13.8,20.7,N/A,,Mostly Cloudy,30,2013-03-15 12:53:00
8:53 AM,19.9,10.0,65,30.08,10.0,NNE,10.4,-,N/A,,Mostly Cloudy,20,2013-03-15 13:53:00
9:53 AM,19.9,10.0,65,30.07,10.0,NE,12.7,-,N/A,,Overcast,50,2013-03-15 14:53:00
10:53 AM,19.9,7.0,57,30.06,10.0,NE,8.1,17.3,0.00,,Overcast,40,2013-03-15 15:53:00
11:53 AM,21.9,7.0,53,30.07,10.0,Variable,6.9,-,N/A,,Overcast,0,2013-03-15 16:53:00
12:53 PM,23.0,7.0,50,30.05,10.0,North,5.8,-,0.00,,Overcast,360,2013-03-15 17:53:00
1:53 PM,25.0,6.1,45,30.04,10.0,NE,6.9,-,0.00,,Overcast,50,2013-03-15 18:53:00
2:53 PM,26.1,3.0,37,30.01,10.0,NE,8.1,-,N/A,,Overcast,40,2013-03-15 19:53:00
3:53 PM,26.1,3.9,39,30.00,10.0,NE,6.9,-,N/A,,Overcast,40,2013-03-15 20:53:00
4:53 PM,25.0,1.9,37,29.99,10.0,NE,8.1,-,N/A,,Overcast,40,2013-03-15 21:53:00
5:53 PM,23.0,3.9,44,30.01,10.0,North,9.2,-,N/A,,Overcast,360,2013-03-15 22:53:00
6:29 PM,19.4,10.4,68,29.95,1.8,North,11.5,-,0.00,Snow,Light Snow,360,2013-03-15 23:29:00
6:53 PM,19.0,12.0,74,30.03,1.2,North,8.1,-,0.00,Snow,Light Snow,10,2013-03-15 23:53:00
7:53 PM,17.1,10.9,77,30.04,2.0,NNE,8.1,-,0.00,Snow,Light Snow,30,2013-03-16 00:53:00
8:06 PM,17.6,10.4,73,29.96,1.5,NNE,9.2,-,0.00,Snow,Light Snow,20,2013-03-16 01:06:00
8:44 PM,15.8,10.4,79,29.97,1.0,NNE,6.9,-,0.00,Snow,Light Snow,20,2013-03-16 01:44:00
8:53 PM,16.0,10.0,77,30.05,1.0,NNE,9.2,-,0.00,Snow,Light Snow,20,2013-03-16 01:53:00
9:10 PM,15.8,8.6,73,29.97,1.5,NNE,9.2,-,0.00,Snow,Light Snow,30,2013-03-16 02:10:00
9:32 PM,15.8,8.6,73,29.96,2.0,NNE,8.1,-,0.01,Snow,Light Snow,30,2013-03-16 02:32:00
9:53 PM,15.1,9.0,77,30.06,1.5,NNE,8.1,-,0.01,Snow,Light Snow,20,2013-03-16 02:53:00
10:07 PM,15.8,8.6,73,29.98,3.0,NNE,6.9,-,0.00,Snow,Light Snow,20,2013-03-16 03:07:00
10:14 PM,15.8,8.6,73,29.98,4.0,NNE,8.1,-,0.00,Snow,Light Snow,20,2013-03-16 03:14:00
10:27 PM,15.8,8.6,73,29.98,2.5,NNE,9.2,-,0.00,Snow,Light Snow,20,2013-03-16 03:27:00
10:36 PM,15.8,8.6,73,29.98,3.0,NNE,8.1,-,0.00,Snow,Light Snow,20,2013-03-16 03:36:00
10:53 PM,14.0,8.1,77,30.07,3.0,NNE,8.1,-,0.00,Snow,Light Snow,20,2013-03-16 03:53:00
10:57 PM,14.0,8.6,79,29.99,2.5,NNE,9.2,-,0.00,Snow,Light Snow,20,2013-03-16 03:57:00
11:09 PM,14.0,8.6,79,29.99,1.8,North,6.9,-,0.00,Snow,Light Snow,10,2013-03-16 04:09:00
11:16 PM,14.0,8.6,79,29.99,2.5,North,10.4,-,0.00,Snow,Light Snow,10,2013-03-16 04:16:00
11:24 PM,14.0,6.8,73,29.99,3.0,North,8.1,-,0.00,Snow,Light Snow,10,2013-03-16 04:24:00
11:32 PM,14.0,6.8,73,29.99,2.5,NNE,8.1,-,0.00,Snow,Light Snow,20,2013-03-16 04:32:00
11:46 PM,12.2,6.8,79,29.99,3.0,NNE,6.9,-,0.00,Snow,Light Snow,20,2013-03-16 04:46:00
11:53 PM,12.9,7.0,77,30.07,2.5,NNE,8.1,-,0.00,Snow,Light Snow,20,2013-03-16 04:53:00